Location: Ch?enovice
(49.7164°N, 15.2160°E)
Time: 20:24:12
(UTC+00:00)

UNK - Pass Details

Date: 23 May 2024
Orbit: 659 x 680 km, 98.3° (Epoch: 20 June)

Event Time Altitude Azimuth Distance (km) Brightness Sun altitude
Rises 01:42:17 0° 161° (SSE) 3,028 6.8 -10.6°
Reaches altitude 10° 01:44:30 10° 160° (SSE) 2,118 6.0 -10.3°
Maximum altitude 01:49:09 82° 74° (ENE) 695 3.9 -9.9°
Drops below altitude 10° 01:53:49 10° 347° (NNW) 2,130 6.8 -9.4°
Sets 01:56:03 0° 347° (NNW) 3,047 7.6 -9.1°
